Regional Weather Roundup
Issued by NWS

Home | Current Version | Previous Version | Graphics & Text | Print | Product List | Glossary On
Versions: 1 2 3 4 5 6 7 8 9 10 11 12 13 14 15 16 17 18 19 20 21 22 23 24 25 26 27 28 29 30 31 32 33 34 35 36 37 38 39 40 41 42 43 44 45 46 47 48 49 50
000
ASUS43 KOAX 081010
RWRNE

WEATHER ROUNDUP FOR NEBRASKA
NATIONAL WEATHER SERVICE OMAHA NE
400 AM CST THU DEC 08 2016

NOTES: SATELLITE DATA IS BEING USED TO AUGMENT CLOUD COVER ABOVE
       12000 FEET.
       "FAIR" INDICATES FEW OR NO CLOUDS BELOW 12,000 FEET WITH NO
       SIGNIFICANT WEATHER AND/OR OBSTRUCTIONS TO VISIBILITY.

  * THESE STATIONS DO NOT REPORT WEATHER SUCH AS RAIN...SNOW OR FOG.

NEZ001>004-019>022-054>056-081100-
NEBRASKA PANHANDLE

CITY           SKY/WX    TMP DP  RH WIND       PRES   REMARKS
SCOTTSBLUFF    CLOUDY    -8 -14  74 NW7       30.51S WCI -23
ALLIANCE       CLEAR     -9 -14  78 W6        30.47S WCI -22
CHADRON        CLEAR      0  -8  69 W9        30.54R WCI -15
KIMBALL        CLOUDY    -9 -13  80 NW9       30.42F WCI -26
SIDNEY         CLOUDY    -7 -13  75 NW13      30.47S WCI -27
$$

NEZ057>060-069>072-079>082-081100-
SOUTHWEST NEBRASKA

CITY           SKY/WX    TMP DP  RH WIND       PRES   REMARKS
NORTH PLATTE   CLEAR      2  -4  76 NW9       30.56S WCI -13
IMPERIAL       CLEAR      0  -8  69 NW15      30.53S WCI -19
LEXINGTON      CLEAR      7  -1  72 NW9       30.56S WCI  -7
MCCOOK         CLEAR     -1  -7  75 W9        30.58S WCI -16
OGALLALA       CLEAR      3  -4  73 NW9       30.54S WCI -12
$$

NEZ005>010-023>029-035>040-094-081100-
NORTH CENTRAL NEBRASKA

CITY           SKY/WX    TMP DP  RH WIND       PRES   REMARKS
VALENTINE      CLEAR      4  -5  66 NW13      30.54R WCI -13
AINSWORTH      CLEAR      5  -2  73 NW15G22   30.51F WCI -13
BROKEN BOW     CLEAR      7  -1  70 NW22      30.52R WCI -14
O`NEILL        CLEAR      7   0  71 NW21G26   30.50S WCI -13
ORD            CLEAR      8  -3  61 NW17G25   30.52S WCI -10
THEDFORD       CLEAR      4  -2  75 NW8       30.53S WCI  -9
$$

NEZ041-046>049-061>064-073>077-083>087-081100-
SOUTH CENTRAL NEBRASKA

CITY           SKY/WX    TMP DP  RH WIND       PRES   REMARKS
GRAND ISLAND   CLEAR      9   1  70 NW15      30.55R WCI  -8
AURORA         CLEAR     10   1  65 NW20G28   30.53S WCI  -8
HASTINGS       CLEAR     10   0  63 NW13      30.55R WCI  -5
HEBRON         CLEAR     12   4  70 NW10      30.57S WCI  -2
HOLDREGE       CLEAR      8   0  69 NW12      30.55S WCI  -7
KEARNEY *      CLEAR     10  -2  56 NW17G24   30.54S WCI  -7
YORK           CLEAR     10   1  67 NW16      30.53S WCI  -7
$$

NEZ011>018-030>034-042>045-081100-
NORTHEAST NEBRASKA

CITY           SKY/WX    TMP DP  RH WIND       PRES   REMARKS
NORFOLK        CLEAR      8  -1  66 NW17G26   30.48S WCI -10
ALBION         CLEAR      9   0  66 NW17G26   30.50F WCI -10
BLAIR          CLEAR     12   6  74 NW10      30.48R WCI  -1
FREMONT        CLEAR     11   4  73 NW18      30.51S WCI  -7
TEKAMAH        CLEAR     11   3  70 NW21G28   30.51R WCI  -8
WAYNE          CLEAR      9   2  73 NW18G26   30.48S WCI  -9
$$

NEZ050>053-065>068-078-088>093-081100-
SOUTHEAST NEBRASKA

CITY           SKY/WX    TMP DP  RH WIND       PRES   REMARKS
LINCOLN        CLEAR     13   2  61 NW14      30.55R WCI  -2
OMAHA EPPLEY   PTCLDY    13   4  67 NW17      30.51R WCI  -4
BEATRICE       CLEAR     13   4  68 NW18      30.54S WCI  -4
FALLS CITY     CLEAR     14   6  70 NW13      30.52R WCI   0
NEBRASKA CITY  CLEAR     14   2  60 NW17G24   30.51S WCI  -3
PLATTSMOUTH    CLEAR     13   2  62 NW14G22   30.49S WCI  -2
$$

NEZ044-045-051>053-067-081100-
OMAHA AREA

CITY           SKY/WX    TMP DP  RH WIND       PRES   REMARKS
OMAHA EPPLEY   PTCLDY    13   4  67 NW17      30.51R WCI  -4
BLAIR          CLEAR     12   6  74 NW10      30.48R WCI  -1
FREMONT        CLEAR     11   4  73 NW18      30.51S WCI  -7
MILLARD        CLEAR     14   4  64 NW16      30.52R WCI  -2
OFFUTT AFB     CLEAR     13   5  70 NW16G24   30.50S WCI  -3
PLATTSMOUTH    CLEAR     13   2  62 NW14G22   30.49S WCI  -2
WAHOO          FAIR      12   3  66 NW17G25   30.52R WCI  -5
$$



USA.gov is the U.S. government's official web portal to all federal, state and local government web resources and services.